[[{"header":{"parameterUnit":"m.s-1","parameterCategory":1,"la1":30.2991,"la2":30.254,"lo1":-89.0895,"lo2":-89.0444,"dy":0.0017,"dx":0.0017,"nx":28,"ny":28,"refTime":"2025-03-14T21:00:00:Z","depth":0,"parameterNumber":2,"parameterNumberName":"U-component_of_WINDS"},"data":[0,0,0,0,0,0,0,0,0,0,0,0,0,0,0,0,0,0,0,0,0,0,0,0,0,0,0,0,0,0,0,0,0,0,0,0,0,0,0,0,0,0,0,0,0,0,0,0,0,0,0,0,0,0,0,0,0,0,-4.9857,-4.9858,0,-4.9999,-5.0001,-5.0003,-5.0045,-5.0044,-5.0043,-5.0043,-5.0186,-5.0191,-5.0195,0,0,0,0,0,0,0,0,0,0,0,0,0,-4.9619,-4.9623,-4.9856,-4.9858,-4.986,-4.9999,-5.0001,-5.0003,-5.0045,-5.0044,-5.0043,-5.0042,-5.0185,-5.019,-5.0195,0,0,0,0,0,0,0,0,0,0,0,0,0,-4.9738,-4.9625,-4.9856,-4.9898,-4.9903,-4.9999,-5.0001,-5.0004,-5.0045,-5.0044,-5.0043,-5.0042,-5.0183,-5.019,-5.0196,-5.026,0,0,-5.0217,-5.022,0,0,0,0,0,0,0,0,-4.9731,-4.9747,-4.989,-4.9895,-4.9901,-5.0003,-4.997,-5.0089,-5.0045,-4.9991,-5.0043,-5.0041,-5.0126,-5.0137,-5.0167,-5.0267,-5.0273,-5.0218,-5.0222,-5.0225,-5.0226,0,0,0,0,0,0,0,-4.9723,-4.9741,-4.9913,-4.9892,-4.9899,-4.9909,-4.9925,-4.9993,-5.0063,-4.9996,-4.9999,-5.0016,-5.0129,-5.016,-5.017,-5.0275,-5.0217,-5.0223,-5.0228,-5.023,-5.0436,-5.0437,0,0,0,0,0,0,-4.9708,-4.9734,-4.9908,-4.9917,-4.9812,-4.9914,-4.9932,-4.9971,-5.0062,-5.0075,-5.0016,-5.0017,-5.0149,-5.0162,-5.0175,-5.0256,-5.0224,-5.0231,-5.0235,-5.0434,-5.0436,-5.0437,0,0,0,0,0,0,-4.9702,-4.9723,-4.9903,-4.9826,-4.985,-4.9919,-4.9964,-4.9975,-5.0006,-5.0078,-5.009,-5.0035,-5.0149,-5.0166,-5.0239,-5.0261,-5.0234,-5.024,-5.0433,-5.0435,-5.0437,-5.0417,0,0,0,0,0,0,-4.9695,-4.9721,-4.9746,-4.9827,-4.9854,-4.9964,-4.9965,-4.9978,-5.0018,-5.002,-5.0099,-5.0111,-5.0149,-5.0229,-5.0246,-5.027,-5.0245,-5.0431,-5.0434,-5.0436,-5.0416,-5.0419,-5.0421,0,0,0,0,0,-4.9687,-4.9734,-4.9747,-4.9768,-4.9887,-4.9965,-4.9981,-5.0024,-5.0019,-5.0045,-5.0092,-5.0108,-5.0257,-5.0236,-5.0255,-5.0282,-5.043,-5.0433,-5.0436,-5.0415,-5.0418,-5.042,0,0,0,0,0,0,-4.9653,-4.9745,-4.9761,-4.9836,-4.9892,-4.9972,-5.0006,-5.0026,-5.0084,-5.0084,-5.0135,-5.0152,-5.0222,-5.026,-5.0235,-5.0349,-5.0344,-5.0351,-5.0321,-5.0325,-5.0327,-5.0315,-5.0251,0,0,0,0,0,-4.9654,-4.9711,-4.9789,-4.9847,-4.9875,-4.9936,-4.9971,-5.0,-5.0061,-5.0085,-5.0136,-5.0194,-5.0254,-5.0292,-5.0351,-5.0423,-5.044,-5.0451,-5.0453,-5.0455,-5.046,-5.0501,-5.0506,-5.0448,-5.0448,-5.0448,0,0,-4.9657,-4.9715,-4.9747,-4.9842,-4.9889,-4.9946,-4.9955,-5.0015,-5.0057,-5.0093,-5.0165,-5.0206,-5.0274,-5.0346,-5.0381,-5.038,-5.048,-5.0459,-5.0459,-5.0464,-5.0504,-5.051,-5.0515,-5.045,-5.045,-5.0449,0,0,-4.9691,-4.9741,-4.9795,-4.9843,-4.9916,-4.9956,-4.9969,-5.0047,-5.0075,-5.0148,-5.0177,-5.0228,-5.033,-5.0377,-5.0414,-5.0469,-5.0486,-5.0487,-5.0497,-5.0536,-5.0541,-5.0545,-5.0563,-5.0569,-5.0492,-5.0492,-5.0492,0,-4.9686,-4.9773,-4.9821,-4.9879,-4.992,-4.9957,-5.0012,-5.0056,-5.0143,-5.017,-5.0168,-5.0298,-5.0346,-5.043,-5.0444,-5.0473,-5.0489,-5.0476,-5.0536,-5.0541,-5.0546,-5.0564,-5.0571,-5.0491,-5.0491,-5.0491,-5.0491,0,-4.9762,-4.9822,-4.9857,-4.9942,-4.9987,-5.0043,-5.0099,-5.0139,-5.0164,-5.0205,-5.0279,-5.0339,-5.0411,-5.0434,-5.0459,-5.0522,-5.0519,-5.0526,-5.0521,-5.055,-5.0568,-5.0575,-5.049,-5.0491,-5.0491,-5.0491,0,0,-4.9776,-4.9888,-4.99,-4.9939,-5.0022,-5.0069,-5.0128,-5.0199,-5.0231,-5.0291,-5.0341,-5.0427,-5.0435,-5.0477,-5.0509,-5.0543,-5.0582,-5.0547,-5.0549,-5.055,-5.0654,-5.0647,-5.0654,-5.0595,-5.0597,-5.0598,-5.0648,0,-4.982,-4.9926,-4.9971,-5.0056,-5.0112,-5.0149,-5.02,-5.0257,-5.0297,-5.035,-5.0394,-5.0454,-5.046,-5.0486,-5.0522,-5.0569,-5.0603,-5.0567,-5.064,-5.0643,-5.062,-5.0664,-5.0656,-5.07,-5.0655,-5.0657,-5.0658,0,-4.9884,-4.9945,-5.0036,-5.0113,-5.0138,-5.0183,-5.0252,-5.0303,-5.0368,-5.0395,-5.0443,-5.0473,-5.0536,-5.0528,-5.0615,-5.0589,-5.0623,-5.0651,-5.0654,-5.066,-5.065,-5.067,-5.0716,-5.0722,-5.0669,-5.0668,-5.0668,0,-4.9884,-4.9989,-5.0057,-5.0089,-5.0181,-5.0212,-5.0252,-5.0316,-5.0356,-5.0417,-5.0443,-5.051,-5.0546,-5.0598,-5.0645,-5.0635,-5.0727,-5.0723,-5.075,-5.0748,-5.0765,-5.0763,-5.0815,-5.079,-5.079,-5.0789,-5.0789,0,-4.9927,-4.998,-5.0058,-5.0099,-5.0161,-5.0213,-5.0272,-5.0315,-5.0372,-5.0422,-5.0459,-5.0505,-5.0565,-5.0619,-5.0657,-5.0723,-5.0739,-5.0762,-5.0771,-5.0757,-5.0754,-5.0778,-5.0776,-5.0791,-5.0791,-5.0791,-5.079,0,-4.9935,-4.999,-5.0066,-5.0148,-5.017,-5.0211,-5.0281,-5.0323,-5.0365,-5.0428,-5.0446,-5.0513,-5.0578,-5.0631,-5.0717,-5.0742,-5.081,-5.0822,-5.0788,-5.0793,-5.0815,-5.0812,-5.0883,-5.0895,-5.0863,-5.0863,-5.0863,0,-4.9958,-5.0001,-5.0087,-5.0124,-5.0164,-5.0222,-5.0264,-5.0317,-5.0359,-5.0437,-5.0469,-5.0538,-5.0595,-5.0698,-5.0754,-5.082,-5.0832,-5.0852,-5.0842,-5.0827,-5.083,-5.0827,-5.0831,-5.0852,-5.0852,-5.0853,-5.0853,0,-4.9993,-5.0018,-5.0076,-5.0145,-5.0194,-5.025,-5.0307,-5.0335,-5.0399,-5.0444,-5.0512,-5.0557,-5.0645,-5.0712,-5.0784,-5.0825,-5.0849,-5.0856,-5.0865,-5.0851,-5.083,-5.084,-5.0789,-5.0853,-5.0853,-5.0853,-5.0853,-5.0853,-5.0009,-5.0048,-5.0115,-5.018,-5.0229,-5.0282,-5.0325,-5.0374,-5.0431,-5.0507,-5.0536,-5.0605,-5.0671,-5.077,-5.0811,-5.0866,-5.0868,-5.0882,-5.0885,-5.0887,-5.0885,-5.0823,-5.088,-5.088,-5.088,-5.088,-5.088,0,-5.0044,-5.0089,-5.0148,-5.0228,-5.0278,-5.0299,-5.0363,-5.0404,-5.0465,-5.0524,-5.058,-5.0658,-5.0724,-5.0786,-5.0855,-5.0887,-5.09,-5.0903,-5.09,-5.0909,-5.088,-5.0864,-5.0891,-5.0891,-5.0891,-5.0891,-5.0891,-5.0891,-5.0068,-5.0135,-5.0169,-5.0261,-5.0307,-5.0375,-5.0411,-5.046,-5.0507,-5.0593,-5.0648,-5.0688,-5.0749,-5.0822,-5.0884,-5.09,-5.0923,-5.0923,-5.0942,-5.0913,-5.0911,-5.0909,-5.0895,-5.0928,-5.0928,-5.0967,-5.0967,-5.0968]},{"header":{"parameterUnit":"m.s-1","parameterCategory":1,"la1":30.2991,"la2":30.254,"lo1":-89.0895,"lo2":-89.0444,"dy":0.0017,"dx":0.0017,"nx":28,"ny":28,"refTime":"2025-03-14T21:00:00:Z","depth":0,"parameterNumber":3,"parameterNumberName":"V-component_of_WINDS"},"data":[0,0,0,0,0,0,0,0,0,0,0,0,0,0,0,0,0,0,0,0,0,0,0,0,0,0,0,0,0,0,0,0,0,0,0,0,0,0,0,0,0,0,0,0,0,0,0,0,0,0,0,0,0,0,0,0,0,0,7.9933,7.9935,0,8.0049,8.005,8.0052,8.0019,8.0017,8.0014,8.0012,8.0126,8.0131,8.0137,0,0,0,0,0,0,0,0,0,0,0,0,0,7.9682,7.9687,7.9933,7.9935,7.9936,8.0049,8.005,8.0052,8.002,8.0017,8.0014,8.0011,8.0125,8.0131,8.0137,0,0,0,0,0,0,0,0,0,0,0,0,0,7.9794,7.9689,7.9933,7.9934,7.9935,8.0049,8.0051,8.0052,8.002,8.0017,8.0013,8.001,8.0123,8.013,8.0138,8.0256,0,0,8.0162,8.0165,0,0,0,0,0,0,0,0,7.9788,7.9803,7.9932,7.9934,7.9935,8.0016,8.0004,8.0121,8.0021,7.9988,8.0012,8.0008,8.0092,8.0102,8.0132,8.0262,8.0267,8.0162,8.0167,8.0171,8.0173,0,0,0,0,0,0,0,7.978,7.9798,7.9979,7.9934,7.9936,7.9928,7.994,8.0026,8.0058,7.999,7.9988,8.0003,8.0092,8.0124,8.0134,8.0268,8.0162,8.0169,8.0174,8.0177,8.0506,8.0509,0,0,0,0,0,0,7.9771,7.9792,7.9975,7.9982,7.9852,7.9935,7.9948,7.9994,8.0057,8.0063,8.0006,8.0001,8.0112,8.0125,8.0138,8.0284,8.0171,8.0178,8.0182,8.0502,8.0506,8.0511,0,0,0,0,0,0,7.9766,7.9788,7.9971,7.9887,7.9909,7.9943,7.9994,7.9998,8.003,8.0069,8.0074,8.0032,8.011,8.0127,8.0228,8.0287,8.0181,8.0188,8.0497,8.0503,8.0509,8.0575,0,0,0,0,0,0,7.9759,7.9786,7.9832,7.9888,7.9914,8.006,7.9998,8.0003,8.0044,8.0039,8.0095,8.0101,8.0109,8.0217,8.0236,8.0296,8.0195,8.0492,8.05,8.0507,8.0568,8.0583,8.0596,0,0,0,0,0,7.975,7.9844,7.9835,7.9857,7.9972,8.0063,8.0078,8.0086,8.0049,8.0095,8.0121,8.0099,8.0278,8.0228,8.0249,8.0312,8.0488,8.0497,8.0506,8.0562,8.058,8.0595,0,0,0,0,0,0,7.9792,7.9852,7.9841,7.9956,8.0006,8.0058,8.0116,8.0105,8.0164,8.0157,8.0163,8.0176,8.0281,8.0306,8.025,8.0432,8.0377,8.0391,8.0412,8.043,8.0443,8.0436,8.0201,0,0,0,0,0,7.9815,7.9885,7.9933,8.003,8.0056,8.0082,8.0122,8.0125,8.0175,8.0195,8.0228,8.0276,8.0344,8.0388,8.0451,8.0571,8.0584,8.0625,8.0639,8.065,8.0663,8.0731,8.0751,8.0541,8.0541,8.054,0,0,7.9862,7.9904,7.9947,8.004,8.0078,8.0151,8.0099,8.0177,8.0232,8.0206,8.0306,8.0332,8.0386,8.0499,8.0549,8.0523,8.0724,8.0662,8.067,8.0677,8.0743,8.0762,8.078,8.0547,8.0546,8.0545,0,0,7.9987,8.0024,8.0112,8.0152,8.0212,8.0229,8.025,8.0305,8.0322,8.0422,8.0406,8.0469,8.0584,8.0626,8.0661,8.0805,8.0789,8.0825,8.0898,8.0965,8.0981,8.0996,8.105,8.1069,8.0837,8.0837,8.0838,0,8.0038,8.0149,8.0157,8.0239,8.0281,8.0263,8.0352,8.039,8.0466,8.0496,8.0465,8.0612,8.0647,8.0771,8.0806,8.0835,8.086,8.082,8.0979,8.0993,8.1007,8.1059,8.1079,8.0842,8.0841,8.0841,8.084,0,8.021,8.0287,8.035,8.0428,8.0477,8.0561,8.0582,8.0631,8.063,8.065,8.0754,8.0796,8.087,8.0899,8.0897,8.1023,8.1005,8.0977,8.0922,8.1032,8.1081,8.11,8.0848,8.0846,8.0845,8.0844,0,0,8.0364,8.0448,8.0471,8.0508,8.0574,8.0633,8.0717,8.0791,8.0834,8.0888,8.096,8.1059,8.1034,8.1075,8.1078,8.1136,8.1251,8.1101,8.1102,8.1129,8.1396,8.1419,8.1442,8.124,8.1244,8.1247,8.1393,0,8.0496,8.0647,8.0658,8.0794,8.0866,8.0852,8.0926,8.0974,8.0996,8.106,8.1084,8.1156,8.1116,8.1141,8.1198,8.1225,8.1305,8.1214,8.1308,8.1311,8.1298,8.1467,8.1491,8.1626,8.1411,8.1415,8.1417,0,8.0671,8.0734,8.0878,8.0937,8.0968,8.1034,8.1105,8.1166,8.1221,8.1233,8.1281,8.1276,8.1363,8.1305,8.1426,8.1364,8.1403,8.1422,8.1427,8.1438,8.1372,8.1485,8.1669,8.1691,8.1446,8.1444,8.1442,0,8.0773,8.0892,8.0995,8.1026,8.1097,8.1145,8.1176,8.1228,8.1273,8.1334,8.1364,8.1433,8.1472,8.1526,8.1541,8.1497,8.1663,8.1605,8.1677,8.1677,8.1713,8.1711,8.191,8.1735,8.1734,8.1734,8.1733,0,8.0921,8.101,8.1043,8.1106,8.1206,8.1218,8.1316,8.1344,8.1391,8.146,8.145,8.1514,8.1529,8.1597,8.1608,8.1709,8.1725,8.1738,8.1741,8.1741,8.1739,8.1767,8.1759,8.1739,8.1738,8.1737,8.1736,0,8.1052,8.1077,8.1188,8.1247,8.1264,8.1336,8.1386,8.1447,8.1468,8.1556,8.1577,8.161,8.169,8.171,8.1803,8.1811,8.1931,8.1922,8.1913,8.1913,8.1985,8.198,8.221,8.2243,8.2044,8.2046,8.2047,0,8.1146,8.1215,8.1283,8.1329,8.1364,8.1438,8.1485,8.15,8.1549,8.1619,8.1672,8.1751,8.1814,8.1942,8.1974,8.2046,8.2042,8.2118,8.2052,8.2051,8.2046,8.2043,8.2052,8.2131,8.2133,8.2134,8.2136,0,8.1312,8.1322,8.1391,8.1466,8.1523,8.1582,8.1638,8.1676,8.1699,8.1755,8.1837,8.1887,8.1985,8.2064,8.2137,8.2168,8.2157,8.2156,8.2177,8.2179,8.2172,8.218,8.195,8.2151,8.215,8.2148,8.2148,8.2147,8.143,8.1492,8.1551,8.1629,8.1673,8.1727,8.1789,8.1819,8.1889,8.1971,8.1975,8.2065,8.212,8.2218,8.2254,8.2325,8.2302,8.2331,8.2339,8.2347,8.2355,8.2159,8.2338,8.2337,8.2337,8.2337,8.2336,0,8.1598,8.1636,8.1708,8.1789,8.1851,8.1836,8.1898,8.1951,8.2031,8.2084,8.2148,8.2244,8.2321,8.2361,8.2438,8.2487,8.2484,8.2507,8.2504,8.2512,8.237,8.2346,8.2508,8.2508,8.2508,8.2508,8.2508,8.2508,8.1693,8.1799,8.1816,8.1944,8.198,8.207,8.2108,8.2158,8.2201,8.2309,8.2374,8.24,8.2449,8.2529,8.26,8.2609,8.2639,8.2666,8.2673,8.2539,8.2522,8.2505,8.2483,8.2671,8.2672,8.281,8.2811,8.2812]}]]